Wind_Speed
15 15 15 16 16 17 17 17 17 17 17 17 17 17 18 18 17 18 19 19 19 19 19 19 20 21 21 22 23 23 23 23 23 23 24 24 24 24
17 17 18 18 18 19 19 19 19 19 18 18 18 19 19 19 19 20 21 21 21 21 21 21 22 22 22 23 24 24 25 25 24 24 24 25 24 24
20 20 21 21 21 21 21 21 21 20 20 20 20 20 20 21 21 22 22 22 23 23 23 23 23 24 24 24 25 25 25 25 25 25 25 25 25 24
22 22 23 23 22 22 23 23 23 23 23 22 22 22 22 23 23 24 24 24 24 24 24 25 25 26 25 26 26 26 26 25 25 25 25 25 24 24
23 24 24 24 24 24 24 24 24 25 25 24 23 24 24 24 25 26 26 26 26 26 26 26 27 27 27 28 28 27 27 27 26 26 26 26 25 25
25 25 25 25 26 26 26 26 26 26 26 26 26 25 25 26 27 27 28 28 28 28 28 28 28 28 28 28 28 28 27 27 27 26 26 26 26 26
26 27 27 27 27 28 27 27 27 28 28 27 27 27 27 28 28 28 28 28 28 28 28 28 28 28 28 28 28 28 28 28 28 28 28 27 27 26
28 28 28 29 29 29 28 28 28 28 28 29 29 29 29 30 30 29 30 29 29 29 30 29 28 28 28 28 28 28 28 28 28 28 28 28 28 28
29 29 30 30 30 29 29 29 29 30 30 30 30 30 31 31 31 31 31 31 30 30 30 30 29 29 28 28 28 27 27 28 28 28 28 28 28 28
31 31 31 31 31 30 30 30 30 30 31 31 32 32 32 32 32 33 32 32 31 31 31 30 29 28 29 28 28 27 27 27 27 28 28 28 28 28
32 33 33 33 32 32 32 32 32 32 32 33 33 33 33 33 32 33 32 32 31 31 31 30 29 28 28 28 28 28 27 27 27 27 27 27 27 27
34 34 34 34 33 32 33 33 33 33 33 33 33 32 32 32 32 33 33 32 32 31 30 30 30 29 29 29 29 28 28 27 27 26 26 26 26 26
34 34 34 34 34 34 34 33 33 33 33 33 32 32 31 31 32 32 32 32 32 31 31 31 31 31 30 29 29 29 28 28 28 27 27 27 26 26
35 34 34 34 35 35 34 34 33 33 33 32 32 32 31 30 31 31 31 32 31 32 32 32 31 31 31 31 30 29 29 29 29 28 28 28 28 27
34 34 34 34 35 34 33 32 33 32 33 32 32 32 32 32 32 31 31 31 31 31 31 31 32 31 31 31 31 30 29 29 29 28 27 28 28 28
35 34 34 33 32 33 32 32 31 31 31 31 31 32 32 32 31 31 31 31 31 31 31 31 31 31 31 31 30 29 29 28 28 28 28 28 28 28
33 33 32 32 32 31 31 31 31 30 29 29 30 31 32 32 31 31 31 30 31 31 31 31 30 30 30 30 29 28 28 28 29 29 28 28 28 28
32 31 31 32 31 31 30 30 30 29 29 29 30 31 31 31 30 30 29 29 29 30 30 30 30 30 30 29 29 29 28 28 28 29 29 29 29 29
32 31 31 31 30 30 30 30 29 29 29 30 30 29 29 30 29 28 28 29 29 30 30 30 30 30 30 30 29 29 29 29 29 29 29 29 29 28
31 30 30 30 30 30 30 30 29 29 28 29 29 29 28 28 28 28 28 28 28 29 29 30 30 30 30 30 30 30 30 30 30 30 30 29 29 29
29 28 29 29 29 29 29 29 28 28 28 28 28 28 28 28 29 29 28 28 29 29 29 29 29 30 30 31 31 31 31 31 31 30 30 30 29 28
27 27 27 27 28 28 28 28 27 28 28 28 28 29 29 30 30 30 30 29 29 29 30 31 31 31 32 31 31 31 31 30 30 29 29 29 29 28
26 26 25 26 26 26 26 27 27 27 28 28 28 28 29 29 30 30 30 30 30 31 31 31 31 32 32 32 32 31 30 29 28 28 29 28 28 29
Wind_Direction
307 308 307 307 307 303 302 300 300 301 301 297 294 295 294 292 291 292 292 293 293 290 289 288 287 286 284 282 281 281 281 281 280 279 277 276 276 274
304 305 305 306 306 303 300 298 298 299 301 302 299 297 295 292 289 290 292 292 293 292 289 286 287 287 286 284 281 281 280 279 279 279 277 276 275 276
303 302 302 302 302 302 301 298 297 298 299 300 300 300 298 294 292 292 293 293 294 293 288 286 285 286 285 286 283 281 281 279 278 277 277 277 276 275
303 302 302 301 300 298 298 298 296 295 296 296 295 295 296 296 293 292 292 292 292 293 292 288 286 286 285 284 283 280 279 280 278 277 277 276 276 274
302 301 301 301 300 298 298 296 295 293 293 293 292 291 292 293 291 291 290 290 291 292 292 292 289 287 285 284 283 281 279 278 277 277 277 276 275 273
301 301 300 300 298 297 296 296 294 293 292 292 292 291 291 290 290 290 289 290 289 289 290 291 289 286 284 284 283 282 281 279 277 276 276 275 275 275
299 298 298 299 298 296 295 295 294 292 291 291 291 290 290 290 290 290 289 289 289 289 289 289 288 286 284 283 282 282 280 279 278 278 277 275 274 274
296 296 296 297 297 295 295 294 293 292 291 291 291 290 290 291 289 289 289 289 288 288 288 289 286 284 285 285 284 283 281 279 277 276 274 273 272 273
295 294 294 295 295 294 293 293 292 291 290 290 290 291 290 290 289 288 288 289 289 287 287 288 286 283 284 285 285 284 281 279 277 276 275 274 273 272
294 294 294 294 292 291 291 292 292 291 290 289 290 289 290 290 289 287 287 287 288 287 286 286 285 282 283 283 283 283 282 280 279 277 275 274 273 272
293 293 292 292 291 290 290 291 291 291 290 290 290 289 289 289 288 287 287 286 286 286 285 285 283 283 282 282 282 282 282 280 280 279 277 275 274 272
291 291 292 292 292 290 289 289 288 289 289 288 289 288 289 289 288 288 286 285 284 284 284 284 284 283 282 281 281 280 280 281 279 278 277 277 275 274
291 291 292 293 293 291 289 287 287 288 288 288 287 287 287 288 287 286 285 285 285 284 283 283 283 282 282 280 279 279 280 280 279 277 276 277 278 276
291 291 292 293 292 291 289 287 287 287 287 286 285 286 286 286 286 286 285 286 286 285 283 282 282 282 281 281 279 279 280 278 278 277 277 276 276 275
289 290 290 290 291 290 291 290 288 288 287 286 286 286 286 286 286 287 287 287 286 286 285 284 283 282 282 282 280 280 280 279 277 277 277 277 276 274
287 288 289 289 289 292 292 291 290 290 290 288 287 287 287 286 286 286 287 286 286 285 285 286 286 284 283 283 282 281 280 278 277 276 277 277 277 276
288 287 287 287 289 289 291 291 290 290 289 287 288 287 288 286 284 284 285 286 287 287 286 284 285 286 286 285 283 281 280 278 277 277 277 275 275 274
286 286 286 287 287 288 289 289 290 291 292 291 291 289 288 287 287 287 287 287 287 287 286 285 284 284 285 285 284 282 281 280 279 279 278 278 276 274
283 285 286 287 287 288 288 288 289 291 292 292 292 290 289 289 288 287 286 288 289 288 287 286 285 284 282 282 282 282 281 280 278 278 278 278 277 274
283 285 286 287 289 289 288 288 289 291 292 292 291 290 289 290 289 288 288 288 289 288 287 286 286 284 282 283 281 280 280 279 278 277 276 276 274 273
285 286 287 288 288 289 289 289 290 291 291 292 291 291 291 292 291 289 288 288 289 289 289 288 287 286 284 282 282 281 280 279 278 277 275 274 272 271
285 287 287 287 288 289 290 290 291 292 292 292 292 291 291 292 293 291 289 289 289 290 290 290 289 287 285 283 282 281 281 280 278 276 274 273 272 271
286 286 285 286 287 289 290 290 292 293 293 293 293 293 292 292 293 292 290 290 290 290 290 291 291 289 286 283 282 281 280 279 277 275 273 272 271 270
Height
5885 5884 5883 5881 5880 5879 5878 5876 5876 5875 5874 5872 5872 5871 5870 5869 5868 5868 5866 5865 5864 5863 5862 5862 5861 5860 5859 5858 5857 5856 5855 5855 5854 5853 5852 5852 5851 5851
5882 5880 5879 5878 5876 5875 5874 5872 5871 5870 5869 5868 5867 5866 5864 5864 5863 5862 5861 5860 5859 5858 5857 5856 5855 5854 5853 5852 5851 5850 5849 5848 5847 5846 5845 5845 5844 5843
5877 5876 5875 5873 5872 5870 5869 5867 5866 5865 5864 5863 5862 5861 5860 5859 5857 5856 5855 5855 5853 5852 5851 5850 5849 5848 5846 5845 5844 5843 5842 5841 5840 5839 5838 5838 5837 5837
5873 5871 5870 5868 5867 5865 5863 5862 5861 5859 5858 5858 5857 5855 5854 5853 5852 5850 5849 5848 5847 5846 5844 5843 5842 5841 5839 5838 5837 5836 5835 5834 5833 5832 5831 5831 5830 5830
5867 5866 5864 5863 5861 5859 5858 5856 5855 5853 5852 5851 5850 5849 5848 5846 5845 5844 5842 5840 5839 5839 5837 5836 5835 5833 5832 5831 5829 5828 5827 5826 5825 5824 5824 5823 5823 5822
5862 5860 5858 5857 5855 5853 5851 5850 5848 5846 5845 5843 5843 5842 5841 5839 5838 5836 5835 5833 5832 5831 5830 5828 5827 5826 5824 5823 5821 5820 5819 5818 5818 5817 5816 5815 5815 5815
5856 5854 5852 5850 5848 5846 5844 5842 5840 5839 5837 5836 5835 5834 5833 5831 5830 5829 5827 5826 5825 5824 5822 5821 5819 5818 5816 5815 5813 5812 5811 5810 5809 5809 5808 5807 5807 5807
5850 5847 5845 5843 5841 5838 5836 5835 5833 5831 5830 5829 5827 5826 5825 5823 5822 5820 5819 5818 5817 5816 5814 5813 5812 5810 5808 5807 5805 5804 5803 5802 5801 5800 5800 5799 5799 5799
5842 5840 5838 5836 5833 5831 5829 5827 5825 5823 5822 5821 5819 5818 5816 5815 5813 5812 5811 5810 5809 5807 5806 5805 5803 5802 5800 5799 5798 5796 5795 5794 5793 5792 5791 5791 5790 5790
5834 5832 5830 5827 5825 5823 5821 5819 5817 5815 5813 5812 5811 5809 5807 5806 5804 5803 5802 5801 5800 5798 5797 5796 5794 5793 5792 5790 5789 5788 5787 5786 5785 5784 5783 5782 5782 5782
5825 5823 5821 5818 5816 5814 5813 5811 5809 5807 5805 5803 5802 5800 5798 5796 5795 5794 5792 5791 5790 5789 5788 5786 5785 5784 5783 5782 5781 5779 5778 5777 5777 5776 5775 5774 5773 5773
5817 5814 5812 5809 5807 5805 5803 5802 5800 5798 5796 5794 5793 5791 5789 5787 5786 5784 5783 5782 5780 5780 5779 5777 5776 5775 5774 5773 5772 5770 5769 5769 5768 5767 5766 5766 5765 5765
5807 5805 5803 5800 5798 5796 5794 5792 5790 5788 5786 5785 5784 5782 5780 5778 5776 5775 5773 5772 5771 5770 5769 5768 5767 5765 5765 5764 5763 5762 5761 5760 5759 5759 5758 5757 5757 5756
5797 5796 5793 5791 5788 5786 5784 5781 5780 5778 5777 5775 5774 5772 5771 5769 5767 5765 5764 5762 5761 5760 5759 5758 5757 5756 5755 5754 5753 5753 5752 5751 5750 5750 5749 5749 5748 5748
5788 5786 5784 5782 5778 5775 5774 5772 5770 5769 5767 5766 5764 5762 5761 5760 5758 5756 5755 5753 5752 5750 5749 5748 5747 5746 5745 5744 5744 5743 5742 5741 5741 5741 5740 5740 5739 5739
5778 5776 5774 5772 5770 5768 5765 5763 5761 5759 5757 5756 5754 5753 5751 5750 5748 5747 5745 5744 5743 5741 5740 5739 5737 5736 5736 5735 5734 5733 5733 5732 5732 5731 5731 5730 5730 5730
5768 5766 5765 5763 5761 5759 5757 5754 5752 5750 5748 5747 5745 5743 5742 5740 5739 5737 5736 5735 5734 5732 5731 5730 5728 5727 5726 5725 5724 5724 5723 5722 5722 5721 5721 5721 5721 5720
5758 5756 5755 5753 5751 5750 5748 5746 5744 5742 5740 5738 5736 5735 5733 5731 5730 5728 5727 5725 5724 5723 5721 5720 5719 5718 5717 5716 5715 5714 5714 5713 5712 5711 5711 5711 5711 5711
5749 5747 5745 5744 5742 5741 5739 5737 5735 5733 5731 5729 5728 5726 5724 5722 5720 5719 5718 5716 5715 5713 5712 5711 5710 5709 5708 5707 5706 5704 5704 5703 5702 5702 5701 5701 5701 5701
5739 5738 5736 5735 5733 5732 5730 5728 5726 5724 5722 5720 5719 5717 5715 5713 5711 5710 5708 5707 5705 5704 5702 5701 5700 5699 5698 5697 5696 5695 5694 5693 5692 5691 5691 5691 5691 5691
5730 5729 5727 5725 5724 5722 5721 5719 5717 5715 5713 5711 5710 5708 5706 5704 5702 5701 5699 5697 5696 5694 5693 5692 5690 5689 5688 5687 5686 5685 5684 5682 5681 5680 5680 5680 5681 5681
5721 5720 5719 5717 5715 5713 5712 5710 5708 5706 5704 5702 5700 5698 5697 5695 5693 5691 5689 5687 5686 5684 5683 5682 5680 5678 5677 5676 5675 5674 5673 5672 5671 5670 5669 5670 5670 5670
5713 5712 5710 5709 5707 5705 5703 5701 5699 5697 5696 5693 5691 5689 5687 5685 5683 5682 5680 5678 5676 5674 5673 5671 5669 5667 5666 5665 5664 5663 5662 5661 5661 5660 5660 5659 5659 5660